Other Public Products
Issued by NWS Charleston, SC

Current Version | Previous Version | Graphics & Text | Print | Product List | Glossary On
Versions: 1 2 3 4 5 6 7 8 9 10 11 12 13 14 15 16 17 18 19 20 21 22 23 24 25 26 27 28 29 30 31 32 33 34 35 36 37 38 39 40 41 42 43 44 45 46 47 48 49 50
000 FPUS82 KCHS 281527 OPUCHS TEST...KCHS/KSAV Gateway Observations...TEST National Weather Service Charleston SC 1100 AM EDT FRI APR 28 2017 NOTE: "fair" indicates few or no clouds below 12,000 feet with no significant weather and/or obstructions to visibility. SCZ050-WAZ558-NCZ071-TXZ119-213-PAZ071-DCZ001-FLZ074-172-MI076- NYZ176-178-MAZ016-IL014-TNZ027-NJZ106-GAZ044-MD014-281600- ...Gateway Observations for Charleston International... CITY SKY/WX TMP DP RH WIND PRES REMARKS Chas Airport MOSUNNY 83 71 67 S10 30.09R Seattle PTSUNNY 45 41 86 S3 30.33R Charlotte CLOUDY 77 67 71 S8 30.08R Dallas DFW CLOUDY 75 66 73 S13 29.62R Dallas Love CLOUDY 75 65 70 S7 29.64R Philladelphia SUNNY 78 59 51 S9 30.01R Wash National MOSUNNY 77 60 55 NE7 30.04R Baltimore MOSUNNY 77 58 51 W10 30.03R Miami MOSUNNY 84 72 67 SE15 30.10R Detroit MOSUNNY 57 41 55 S12 30.02R Newark MOSUNNY 72 61 68 SW5 29.98S Laguardia MOSUNNY 72 60 66 VRB6 29.98S HAZE J F K MOSUNNY 68 61 78 S7 30.00R HAZE Boston Logan PTSUNNY 65 59 81 W8 29.96R Ft. Lauderdale MOSUNNY 83 72 69 SE16 30.09R Chicago O`Hare PTSUNNY 51 37 58 NE5 29.93F Chicago Midway PTSUNNY 53 43 68 CALM 29.93F Houston Bush MOSUNNY 83 71 67 S14G24 29.68S Houston Hobby MOSUNNY 80 72 76 S16G22 29.68S Nashville PTSUNNY 69 58 67 SE8 29.94F Atlanta PTSUNNY 76 68 76 S14 30.05R $$ GAZ044-118-TXZ119-213-NCZ071-DCZ001-MDZ014-506-PAZ021-071-NJZ106- NYZ176-178-MAZ106-OHZ011-021-055-MIZ076-KYZ091-ILZ014-INZ047- MNZ060-ONZ431-281600- ...Gateway Observations for Savannah International... CITY SKY/WX TMP DP RH WIND PRES REMARKS Savannah Arpt MOSUNNY 85 64 49 S9 30.08R Atlanta PTSUNNY 76 68 76 S14 30.05R Charlotte CLOUDY 77 67 71 S8 30.08R Dallas DFW CLOUDY 75 66 73 S13 29.62R Houston Bush MOSUNNY 83 71 67 S14G24 29.68S Wash National MOSUNNY 77 60 55 NE7 30.04R Wash Dulles MOSUNNY 76 58 53 W6 30.05R Baltimore MOSUNNY 77 58 51 W10 30.03R Philadelphia SUNNY 78 59 51 S9 30.01R Newark MOSUNNY 72 61 68 SW5 29.98S Laguardia MOSUNNY 72 60 66 VRB6 29.98S HAZE J F K MOSUNNY 68 61 78 S7 30.00R HAZE Boston PTSUNNY 65 59 81 W8 29.96R Pittsburg PTSUNNY 60 48 64 VRB3 30.06F Akron CLOUDY 58 45 62 S9 30.04F Cleveland PTSUNNY 58 41 53 S8 30.06S Cincinnati PTSUNNY 59 49 69 SE13 29.99F Columbus CLOUDY 60 49 67 S9 30.02F Detroit MOSUNNY 57 41 55 S12 30.02R Chicago O`Hare PTSUNNY 51 37 58 NE5 29.93F Minneapolis MOSUNNY 40 25 55 N6G17 29.92R WCI 36 Indianapolis CLOUDY 52 46 80 E10 29.96F Toronto Canada PTSUNNY 57 41 54 SW13 29.98S $$

USA.gov is the U.S. government's official web portal to all federal, state and local government web resources and services.